[[{"header":{"parameterUnit":"m.s-1","parameterCategory":1,"la1":30.2992,"la2":30.254,"lo1":-89.0895,"lo2":-89.0443,"dy":0.0025,"dx":0.0025,"nx":19,"ny":19,"refTime":"2026-03-21T09:00:00:Z","depth":0,"parameterNumber":2,"parameterNumberName":"U-component_of_WINDS"},"data":[0,0,0,5.0113,5.0117,5.0338,5.0339,5.0625,5.0627,0,0,0,0,0,0,0,0,0,0,0,5.005,5.0052,5.0112,5.0118,5.0338,5.0339,5.0624,5.0627,0,0,0,0,0,0,0,0,0,0,0,5.0049,5.0052,5.0054,5.0119,5.0337,5.0339,5.0624,5.0456,0,0,0,0,0,0,0,0,0,0,5.0242,5.0186,5.0051,5.0054,5.012,5.0337,5.0339,5.0448,5.0466,5.0527,0,5.0581,0,5.0609,5.0647,5.0648,0,0,0,5.0116,5.0171,5.0228,5.0055,5.0122,5.0337,5.0238,5.0458,5.0479,5.0552,5.0585,5.0595,5.0613,5.0648,5.065,5.1002,5.1003,0,0,5.0104,5.0091,5.0213,5.0241,5.0207,5.0231,5.0245,5.0471,5.0507,5.0586,5.0602,5.0618,5.065,5.0653,5.1,5.1002,0,0,0,5.007,5.0083,5.0134,5.023,5.0269,5.0237,5.0253,5.0497,5.0514,5.0605,5.0621,5.0652,5.0656,5.0998,5.1001,5.1071,0,0,0,5.0063,5.0063,5.0129,5.0123,5.0265,5.0386,5.0274,5.0499,5.0525,5.062,5.0652,5.0658,5.0996,5.1,5.1065,5.1107,0,0,0,5.0035,5.006,5.0093,5.0122,5.0216,5.0382,5.0413,5.0505,5.0535,5.0648,5.0659,5.0995,5.0999,5.106,5.1098,5.1194,0,0,0,5.0002,5.0154,5.0093,5.027,5.0214,5.0425,5.0411,5.0569,5.0675,5.0654,5.0997,5.1001,5.1059,5.1093,5.1188,5.1271,5.1304,0,0,5.0187,5.0176,5.0281,5.0233,5.045,5.0392,5.062,5.073,5.0753,5.0918,5.0926,5.1067,5.1098,5.1193,5.1501,5.1528,0,0,0,5.0335,5.041,5.047,5.0569,5.0656,5.0733,5.0809,5.085,5.099,5.0835,5.113,5.1148,5.1204,5.1244,5.1267,5.1315,5.1019,5.1019,5.1018,5.0577,5.0598,5.0772,5.0819,5.0916,5.0991,5.1071,5.1139,5.1133,5.1202,5.125,5.1435,5.1481,5.1498,5.1549,5.1297,5.1298,5.1298,5.1298,5.0848,5.0957,5.0944,5.1108,5.1128,5.1267,5.1346,5.1337,5.1468,5.1401,5.1451,5.1374,5.1527,5.1572,5.1304,5.1303,5.1302,5.1302,5.1301,5.1008,5.1063,5.1109,5.1254,5.1363,5.1406,5.1532,5.1548,5.1563,5.1614,5.1665,5.1664,5.1663,5.1637,5.1638,5.1639,5.1639,5.164,5.164,5.1154,5.1204,5.1308,5.1412,5.1477,5.1564,5.1642,5.1707,5.1782,5.1783,5.1784,5.1769,5.1539,5.1479,5.165,5.1648,5.1647,5.1646,5.1645,5.1417,5.136,5.1521,5.1586,5.1708,5.1815,5.1833,5.1963,5.2019,5.2081,5.2056,5.1884,5.1874,5.1856,5.1806,5.2052,5.2052,5.2052,5.2052,5.155,5.1547,5.1713,5.1816,5.1919,5.1951,5.2131,5.2193,5.2248,5.2284,5.2251,5.2188,5.2169,5.217,5.2145,5.2099,5.2414,5.2414,5.2415,5.1712,5.1719,5.187,5.1922,5.2019,5.2102,5.2271,5.2389,5.244,5.243,5.2312,5.2296,5.2194,5.216,5.2145,5.2106,5.2022,0,0]},{"header":{"parameterUnit":"m.s-1","parameterCategory":1,"la1":30.2992,"la2":30.254,"lo1":-89.0895,"lo2":-89.0443,"dy":0.0025,"dx":0.0025,"nx":19,"ny":19,"refTime":"2026-03-21T09:00:00:Z","depth":0,"parameterNumber":3,"parameterNumberName":"V-component_of_WINDS"},"data":[0,0,0,2.6377,2.638,2.6516,2.6516,2.6683,2.6685,0,0,0,0,0,0,0,0,0,0,0,2.6334,2.6335,2.6377,2.638,2.6516,2.6516,2.6683,2.6685,0,0,0,0,0,0,0,0,0,0,0,2.6333,2.6335,2.6336,2.6381,2.6516,2.6516,2.6683,2.6582,0,0,0,0,0,0,0,0,0,0,2.6451,2.6409,2.6334,2.6336,2.6381,2.6516,2.6517,2.6577,2.6588,2.6619,0,2.6646,0,2.6668,2.6695,2.6696,0,0,0,2.6382,2.64,2.6439,2.6336,2.6383,2.6515,2.6455,2.6584,2.6596,2.6633,2.6649,2.6655,2.6671,2.6696,2.6697,2.6869,2.6869,0,0,2.6374,2.6356,2.6431,2.6447,2.6427,2.6451,2.6459,2.6591,2.6606,2.665,2.6659,2.6674,2.6698,2.6699,2.6868,2.6869,0,0,0,2.6352,2.6351,2.6387,2.644,2.6465,2.6455,2.6464,2.6601,2.6614,2.6661,2.6676,2.6698,2.67,2.6867,2.6868,2.6886,0,0,0,2.6347,2.6338,2.6384,2.6374,2.6463,2.6535,2.6471,2.6605,2.662,2.6675,2.6699,2.6702,2.6867,2.6868,2.6884,2.6898,0,0,0,2.6326,2.6335,2.6354,2.6373,2.6431,2.6533,2.6554,2.6609,2.6629,2.6696,2.6702,2.6866,2.6868,2.6882,2.6895,2.6937,0,0,0,2.6298,2.6368,2.6354,2.6438,2.643,2.6543,2.6554,2.6639,2.6699,2.6699,2.6867,2.6868,2.6882,2.6893,2.6935,2.697,2.6983,0,0,2.6376,2.6377,2.6428,2.6419,2.6531,2.6524,2.6638,2.6709,2.6732,2.6821,2.6826,2.6885,2.6894,2.6937,2.7061,2.7071,0,0,0,2.6446,2.6483,2.6516,2.6572,2.6629,2.6678,2.6734,2.676,2.6837,2.6775,2.6912,2.6919,2.6944,2.6961,2.697,2.6993,2.6876,2.6876,2.6875,2.6532,2.6557,2.6642,2.6684,2.6738,2.6794,2.684,2.6885,2.6894,2.6926,2.6953,2.7026,2.7045,2.7052,2.7075,2.6973,2.6973,2.6974,2.6974,2.6649,2.6704,2.6715,2.6801,2.6827,2.6899,2.6956,2.696,2.703,2.7008,2.7031,2.7004,2.7062,2.7084,2.6975,2.6975,2.6975,2.6975,2.6974,2.6708,2.6738,2.6769,2.6852,2.6913,2.6952,2.7019,2.704,2.706,2.7083,2.7114,2.7113,2.7115,2.7096,2.7097,2.7097,2.7097,2.7097,2.7097,2.6756,2.679,2.6845,2.691,2.6948,2.7001,2.7058,2.7096,2.7143,2.7152,2.7153,2.7158,2.7063,2.7039,2.7101,2.7101,2.71,2.71,2.71,2.6865,2.6844,2.6928,2.6966,2.7044,2.7102,2.7128,2.7203,2.7237,2.7269,2.727,2.7196,2.7198,2.7191,2.7171,2.7264,2.7264,2.7264,2.7264,2.6914,2.6917,2.7008,2.7068,2.7128,2.716,2.7253,2.7297,2.7338,2.7361,2.735,2.7325,2.7318,2.7324,2.7314,2.7296,2.7419,2.7419,2.7419,2.6982,2.6992,2.7068,2.711,2.7171,2.7224,2.7311,2.7378,2.7421,2.7426,2.7379,2.7372,2.7332,2.7318,2.7321,2.7306,2.7273,0,0]}]]